Jackpot Winner Domino

Jackpot hanya dapat di beli di awal sebelum periode tersebut berjalan dan jika berhasil maka anda dapat melihat di sisi kiri bawah atau kiri atas akan terdapat notifikasi bahwa jackpot anda berhasil di beli.

Jika anda membeli jackpot di tengah permainan maka pembelian jackpot akan berlaku untuk periode selanjutnya.

Ikutilah global jackpot yang tersedia di system kami, dengan system jackpot terbaru dan pertama di indonesia, anda dapat membeli jackpot dengan harga 100 rupiah saja dan menangkan hadiahnya hingga puluhan juta rupiah.

Jackpot bukanlah suatu keharusan untuk dibeli, namun kami memberikan suatu fitur tambahan untuk member tercinta dari www.nagapkrasia.com.

Terdapat tiga pilihan harga jackpot yang bisa anda beli yaitu :100,500 dan 1000 rupiah.

Hadiah dari Multi jackpot system www.nagapkrasia.com

  1. Murni Kecil x 50 harga jackpot yang anda beli.
      (contoH:anda membeli 1000 maka:1000 X 50 = 50.000)
  2. Murni Besar x 50 harga jackpot yang anda beli
      (contoH:anda membeli 1000 maka:1000 X 50 = 50.000)
  3. BALAK x 100 harga jackpot yang anda beli
      (contoH:anda membeli 1000 maka:1000 X 100 = 100.000)
  4. ENAM DEWA x 6666 harga jackpot yang anda beli
      (contoH:anda membeli 1000 maka:1000 X 6666 = 6.666.000)

Demikian adalah penjelasan dari Multi Jackpot www.nagapkrasia.com terima kasih dan selamat bermain salam hoki dari kami


Note: Untuk mendapatkan jackpot di satu periode, pemain harus menyelesaikan permainan di periode tersebut, minimal 2 pemain. Jika semua pemain 'fold' jackpot tidak akan diturunkan.


Jackpot Winner

TOP ENAM DEWA
No. Tanggal Nama Price Win
1 21/02 08:30 H36JY9PB66 murni enam 6,666,000
2 21/02 07:21 TEMPALO murni enam 6,666,000
3 21/02 05:34 HUMAS25 murni enam 6,666,000
4 21/02 05:15 KENDENDES murni enam 6,666,000
5 21/02 05:06 DONIGANJA6 murni enam 666,600
TOP BALAK
No. Tanggal Nama Price Win
1 21/02 09:07 ANA1303 balak 100,000
2 21/02 09:02 OIE41 balak 100,000
3 21/02 08:56 PENKKA99 balak 100,000
4 21/02 08:54 CH4NDXXX balak 10,000
5 21/02 08:51 LAGIBOTEK balak 50,000
LATEST JACKPOT
No. Tanggal Nama Price Win
1 21/02 09:10 AC776647 murni besar 5,000
2 21/02 09:07 CELENGS murni besar 50,000
3 21/02 09:07 ORDEM07 murni besar 50,000
4 21/02 09:07 ANA1303 balak 100,000
5 21/02 09:06 PR4JURIT murni besar 25,000
6 21/02 09:06 MISNADI11 murni kecil 50,000
7 21/02 09:06 ULIA61 murni kecil 25,000
8 21/02 09:05 H4NTUL4U murni kecil 50,000
9 21/02 09:03 GURILEM33 lucky99 10,000
10 21/02 09:02 RINDUAKU murni besar 25,000
11 21/02 09:02 VIOLA53 murni kecil 5,000
12 21/02 09:02 OIE41 balak 100,000
13 21/02 09:02 PABBOTO23 murni besar 50,000
14 21/02 09:01 ANTOGORENG murni kecil 25,000
15 21/02 09:01 AGUST9990 murni kecil 5,000
16 21/02 09:01 PIN73R murni kecil 50,000
17 21/02 09:00 VIRAELI murni besar 50,000
18 21/02 09:00 SEGI46 murni kecil 5,000
19 21/02 09:00 THEKING72 murni besar 25,000
20 21/02 09:00 EMAHF murni kecil 25,000
21 21/02 09:00 PARDI2712 murni besar 50,000
22 21/02 08:56 PENKKA99 balak 100,000
23 21/02 08:55 LAGIBOTEK murni kecil 5,000
24 21/02 08:54 CH4NDXXX balak 10,000
25 21/02 08:51 VIOLA53 murni besar 5,000
26 21/02 08:51 PR4JURIT murni besar 25,000
27 21/02 08:51 LAGIBOTEK balak 50,000
28 21/02 08:49 RUDINI55 balak 50,000
29 21/02 08:49 HABIBI1 balak 50,000
30 21/02 08:48 REKLO17 balak 50,000
31 21/02 08:47 UTY1220 balak 10,000
32 21/02 08:47 WARAWIRI67 balak 50,000
33 21/02 08:46 JOLED14 murni besar 50,000
34 21/02 08:46 RENGKUH_CU murni kecil 50,000
35 21/02 08:46 PARDI2712 murni kecil 50,000
36 21/02 08:46 E995C910 balak 10,000
37 21/02 08:45 UTY1220 murni besar 5,000
38 21/02 08:45 WASLEE81 lucky99 50,000
39 21/02 08:45 PABBOTO23 murni besar 50,000
40 21/02 08:44 ECAY212 murni besar 50,000
41 21/02 08:43 ABIGELL1 balak 10,000
42 21/02 08:43 AGUST9990 balak 10,000
43 21/02 08:42 ENDROW28 murni besar 5,000
44 21/02 08:41 BAOT99TROS balak 10,000
45 21/02 08:40 NRDN00 murni besar 50,000
46 21/02 08:40 LANDUNG98 lucky99 25,000
47 21/02 08:39 SYOKRI murni kecil 50,000
48 21/02 08:39 MF1R4S murni besar 50,000
49 21/02 08:37 NIAAYAT murni kecil 50,000
50 21/02 08:37 RENGKUH_CU murni kecil 50,000